[[{"header":{"parameterUnit":"m.s-1","parameterCategory":1,"la1":30.2991,"la2":30.254,"lo1":-89.0895,"lo2":-89.0444,"dx":0.0017,"dy":0.0017,"nx":28,"ny":28,"refTime":"2022-11-07T03:00:00:Z","depth":0,"parameterNumber":2,"parameterNumberName":"U-component_of_WINDS"},"data":[0,0,0,0,0,0,0,0,0,0,0,0,0,0,0,0,0,0,0,0,0,0,0,0,0,0,0,0,0,0,0,0,0,0,0,0,0,0,0,0,0,0,0,0,0,0,0,0,0,0,0,0,0,0,0,0,0,0,-2.1903,-2.1903,0,-2.1904,-2.1904,-2.1904,-2.1856,-2.1855,-2.1854,-2.1853,-2.1853,-2.1854,-2.1856,0,0,0,0,0,0,0,0,0,0,0,0,0,-2.1858,-2.1859,-2.1903,-2.1903,-2.1903,-2.1904,-2.1904,-2.1904,-2.1857,-2.1855,-2.1854,-2.1852,-2.1853,-2.1854,-2.1856,0,0,0,0,0,0,0,0,0,0,0,0,0,-2.187,-2.1859,-2.1903,-2.1879,-2.1877,-2.1904,-2.1904,-2.1904,-2.1857,-2.1855,-2.1853,-2.1851,-2.1852,-2.1854,-2.1856,-2.1905,0,0,-2.1861,-2.1862,0,0,0,0,0,0,0,0,-2.1869,-2.1872,-2.1883,-2.1881,-2.1879,-2.1878,-2.1888,-2.1904,-2.1857,-2.1865,-2.1853,-2.185,-2.1863,-2.1864,-2.1868,-2.1905,-2.1905,-2.1862,-2.1863,-2.1863,-2.1864,0,0,0,0,0,0,0,-2.1868,-2.1871,-2.1903,-2.1883,-2.188,-2.1868,-2.1868,-2.1891,-2.1874,-2.1864,-2.186,-2.1861,-2.1862,-2.1867,-2.1868,-2.1905,-2.1862,-2.1863,-2.1864,-2.1865,-2.1983,-2.1985,0,0,0,0,0,0,-2.1871,-2.1871,-2.1903,-2.1903,-2.1869,-2.1871,-2.187,-2.188,-2.1874,-2.1871,-2.1863,-2.1859,-2.1864,-2.1866,-2.1868,-2.1926,-2.1863,-2.1865,-2.1866,-2.1981,-2.1984,-2.1986,0,0,0,0,0,0,-2.187,-2.1874,-2.1903,-2.1886,-2.1889,-2.1873,-2.1885,-2.1881,-2.1886,-2.1873,-2.187,-2.1871,-2.1863,-2.1865,-2.1896,-2.1925,-2.1866,-2.1868,-2.1979,-2.1982,-2.1985,-2.2042,0,0,0,0,0,0,-2.1869,-2.1874,-2.1893,-2.1887,-2.189,-2.1932,-2.1887,-2.1883,-2.189,-2.1885,-2.188,-2.1878,-2.1862,-2.1894,-2.1898,-2.1926,-2.1869,-2.1976,-2.198,-2.1984,-2.2037,-2.2046,-2.2054,0,0,0,0,0,-2.1868,-2.1909,-2.1894,-2.1899,-2.1913,-2.1934,-2.1936,-2.1917,-2.1892,-2.1911,-2.1903,-2.1878,-2.1921,-2.1898,-2.1902,-2.1931,-2.1974,-2.1979,-2.1983,-2.2033,-2.2045,-2.2054,0,0,0,0,0,0,-2.1918,-2.1908,-2.1891,-2.1932,-2.1934,-2.1926,-2.1949,-2.1929,-2.1938,-2.1933,-2.1908,-2.1908,-2.1943,-2.194,-2.1914,-2.1979,-2.1943,-2.1949,-2.198,-2.199,-2.1999,-2.1999,-2.187,0,0,0,0,0,-2.1934,-2.1952,-2.1942,-2.1978,-2.198,-2.1965,-2.1973,-2.1958,-2.1959,-2.196,-2.1954,-2.1956,-2.197,-2.198,-2.1992,-2.2036,-2.2035,-2.2058,-2.2067,-2.2074,-2.2079,-2.2103,-2.2114,-2.2001,-2.2001,-2.2001,0,0,-2.1967,-2.1964,-2.1976,-2.1988,-2.1989,-2.2008,-2.1966,-2.1988,-2.2002,-2.1963,-2.1993,-2.1988,-2.1989,-2.2027,-2.2044,-2.2026,-2.211,-2.208,-2.2086,-2.2087,-2.2109,-2.212,-2.213,-2.2004,-2.2004,-2.2003,0,0,-2.2038,-2.2036,-2.2067,-2.2068,-2.2069,-2.2058,-2.2066,-2.2061,-2.2056,-2.2086,-2.2057,-2.2073,-2.2098,-2.2099,-2.2104,-2.2175,-2.2153,-2.2179,-2.2224,-2.2248,-2.2257,-2.2264,-2.2291,-2.23,-2.2185,-2.2185,-2.2185,0,-2.2079,-2.2107,-2.2085,-2.211,-2.2116,-2.2082,-2.2113,-2.2115,-2.212,-2.2125,-2.2104,-2.2135,-2.2133,-2.2171,-2.2189,-2.2193,-2.2201,-2.218,-2.2257,-2.2265,-2.2271,-2.2296,-2.2306,-2.2188,-2.2188,-2.2187,-2.2187,0,-2.2157,-2.2177,-2.2202,-2.2208,-2.2217,-2.2244,-2.2227,-2.2238,-2.2223,-2.2214,-2.2244,-2.2241,-2.2252,-2.226,-2.2244,-2.2296,-2.2285,-2.2261,-2.2225,-2.2286,-2.2309,-2.2318,-2.2193,-2.2192,-2.2191,-2.219,0,0,-2.226,-2.2254,-2.2264,-2.2267,-2.2265,-2.228,-2.2306,-2.2317,-2.2328,-2.2332,-2.2353,-2.2374,-2.2353,-2.2357,-2.2342,-2.2362,-2.242,-2.2336,-2.2335,-2.2352,-2.2478,-2.2497,-2.2508,-2.2405,-2.2406,-2.2408,-2.2478,0,-2.2329,-2.2374,-2.2355,-2.2402,-2.242,-2.2388,-2.2411,-2.2412,-2.2405,-2.2419,-2.241,-2.2426,-2.2395,-2.2398,-2.2417,-2.2409,-2.2445,-2.2403,-2.2425,-2.2426,-2.2427,-2.252,-2.254,-2.2607,-2.2487,-2.2488,-2.2489,0,-2.2416,-2.2425,-2.2473,-2.2469,-2.2476,-2.2496,-2.2505,-2.2519,-2.252,-2.2513,-2.2519,-2.2498,-2.2523,-2.2487,-2.2521,-2.2493,-2.2501,-2.2498,-2.25,-2.2502,-2.2462,-2.2526,-2.2627,-2.2638,-2.2503,-2.2502,-2.2501,0,-2.2488,-2.2511,-2.2543,-2.2546,-2.2542,-2.2557,-2.2556,-2.2555,-2.2563,-2.257,-2.2575,-2.2586,-2.2592,-2.26,-2.2583,-2.2558,-2.262,-2.2582,-2.2615,-2.2616,-2.2631,-2.263,-2.2736,-2.2634,-2.2634,-2.2633,-2.2633,0,-2.2567,-2.2598,-2.2575,-2.2595,-2.2629,-2.2607,-2.2641,-2.2636,-2.2635,-2.2654,-2.2626,-2.2644,-2.262,-2.2635,-2.2622,-2.2653,-2.2655,-2.2651,-2.2647,-2.2654,-2.2655,-2.2659,-2.2654,-2.2636,-2.2636,-2.2635,-2.2635,0,-2.2654,-2.2639,-2.2672,-2.2665,-2.2664,-2.269,-2.2684,-2.2702,-2.2692,-2.2715,-2.272,-2.2705,-2.2721,-2.2705,-2.272,-2.2711,-2.2753,-2.2742,-2.2753,-2.2751,-2.2785,-2.2783,-2.2899,-2.2913,-2.2801,-2.2802,-2.2803,0,-2.2706,-2.2729,-2.2725,-2.2736,-2.2736,-2.2753,-2.2762,-2.2741,-2.275,-2.2753,-2.2771,-2.2785,-2.2796,-2.2824,-2.2814,-2.2826,-2.2816,-2.2855,-2.2817,-2.2824,-2.2818,-2.2817,-2.2819,-2.2864,-2.2865,-2.2866,-2.2867,0,-2.2801,-2.2793,-2.2806,-2.2817,-2.2828,-2.2835,-2.2841,-2.2851,-2.2829,-2.2841,-2.2858,-2.2866,-2.2882,-2.2897,-2.2906,-2.2904,-2.2883,-2.2879,-2.2887,-2.2895,-2.2901,-2.29,-2.2776,-2.2877,-2.2876,-2.2875,-2.2874,-2.2874,-2.2872,-2.2892,-2.2892,-2.2908,-2.291,-2.2916,-2.2932,-2.2925,-2.2939,-2.2951,-2.2937,-2.2958,-2.2958,-2.2968,-2.2969,-2.2985,-2.2968,-2.298,-2.2984,-2.2987,-2.2993,-2.2898,-2.2986,-2.2986,-2.2986,-2.2986,-2.2985,0,-2.2967,-2.2966,-2.298,-2.2989,-2.3001,-2.2979,-2.2984,-2.2996,-2.3015,-2.3017,-2.3028,-2.3048,-2.3062,-2.3054,-2.3066,-2.308,-2.3071,-2.3084,-2.3084,-2.3084,-2.3007,-2.2999,-2.3092,-2.3092,-2.3092,-2.3092,-2.3092,-2.3092,-2.3018,-2.305,-2.3042,-2.3074,-2.3072,-2.3093,-2.3098,-2.3103,-2.3105,-2.3128,-2.314,-2.3134,-2.3132,-2.3144,-2.3156,-2.3153,-2.316,-2.3177,-2.3171,-2.3099,-2.3089,-2.3079,-2.3071,-2.3178,-2.3179,-2.3247,-2.3247,-2.3248]},{"header":{"parameterUnit":"m.s-1","parameterCategory":1,"la1":30.2991,"la2":30.254,"lo1":-89.0895,"lo2":-89.0444,"dx":0.0017,"dy":0.0017,"nx":28,"ny":28,"refTime":"2022-11-07T03:00:00:Z","depth":0,"parameterNumber":3,"parameterNumberName":"V-component_of_WINDS"},"data":[0,0,0,0,0,0,0,0,0,0,0,0,0,0,0,0,0,0,0,0,0,0,0,0,0,0,0,0,0,0,0,0,0,0,0,0,0,0,0,0,0,0,0,0,0,0,0,0,0,0,0,0,0,0,0,0,0,0,-2.5096,-2.5097,0,-2.513,-2.5131,-2.5131,-2.5098,-2.5097,-2.5096,-2.5094,-2.5127,-2.5129,-2.5132,0,0,0,0,0,0,0,0,0,0,0,0,0,-2.5001,-2.5003,-2.5096,-2.5097,-2.5097,-2.513,-2.5131,-2.5131,-2.5098,-2.5097,-2.5095,-2.5094,-2.5127,-2.5129,-2.5132,0,0,0,0,0,0,0,0,0,0,0,0,0,-2.504,-2.5004,-2.5096,-2.5085,-2.5084,-2.513,-2.5131,-2.5131,-2.5099,-2.5097,-2.5095,-2.5093,-2.5126,-2.5129,-2.5132,-2.519,0,0,-2.5142,-2.5143,0,0,0,0,0,0,0,0,-2.5038,-2.5043,-2.5086,-2.5086,-2.5085,-2.5108,-2.5109,-2.5151,-2.5099,-2.5093,-2.5094,-2.5092,-2.5122,-2.5126,-2.5136,-2.5192,-2.5193,-2.5142,-2.5144,-2.5145,-2.5146,0,0,0,0,0,0,0,-2.5035,-2.5041,-2.511,-2.5087,-2.5086,-2.5077,-2.5081,-2.5117,-2.5118,-2.5094,-2.5091,-2.5096,-2.5122,-2.5133,-2.5137,-2.5194,-2.5142,-2.5145,-2.5147,-2.5148,-2.5297,-2.5299,0,0,0,0,0,0,-2.5034,-2.504,-2.5109,-2.5111,-2.5056,-2.5081,-2.5084,-2.5103,-2.5118,-2.5118,-2.5098,-2.5094,-2.5129,-2.5133,-2.5138,-2.5207,-2.5145,-2.5148,-2.515,-2.5295,-2.5298,-2.53,0,0,0,0,0,0,-2.5032,-2.504,-2.5107,-2.5075,-2.5082,-2.5084,-2.5105,-2.5104,-2.5116,-2.5121,-2.5121,-2.5109,-2.5128,-2.5133,-2.5177,-2.5207,-2.5149,-2.5152,-2.5293,-2.5296,-2.5299,-2.5345,0,0,0,0,0,0,-2.5029,-2.504,-2.5063,-2.5075,-2.5084,-2.5147,-2.5107,-2.5106,-2.5122,-2.5118,-2.5132,-2.5132,-2.5127,-2.5173,-2.518,-2.521,-2.5155,-2.529,-2.5294,-2.5298,-2.5341,-2.5349,-2.5356,0,0,0,0,0,-2.5026,-2.5074,-2.5064,-2.5072,-2.5113,-2.5149,-2.5154,-2.5147,-2.5124,-2.5147,-2.5149,-2.5132,-2.5203,-2.5178,-2.5186,-2.5217,-2.5288,-2.5293,-2.5298,-2.5337,-2.5347,-2.5356,0,0,0,0,0,0,-2.5064,-2.5075,-2.5064,-2.5118,-2.5133,-2.5143,-2.5172,-2.5158,-2.5179,-2.5175,-2.5164,-2.5168,-2.5214,-2.522,-2.5192,-2.5274,-2.5242,-2.5248,-2.5269,-2.5279,-2.5286,-2.5284,-2.5157,0,0,0,0,0,-2.5079,-2.5108,-2.5116,-2.5162,-2.517,-2.517,-2.5185,-2.5178,-2.5193,-2.5199,-2.5205,-2.522,-2.5245,-2.5262,-2.5286,-2.5341,-2.5343,-2.5366,-2.5374,-2.5381,-2.5387,-2.5416,-2.5426,-2.5316,-2.5316,-2.5315,0,0,-2.511,-2.512,-2.5138,-2.517,-2.5181,-2.5211,-2.5175,-2.5208,-2.523,-2.5204,-2.5246,-2.5251,-2.5266,-2.5316,-2.5338,-2.5322,-2.5417,-2.5387,-2.5392,-2.5394,-2.5421,-2.5432,-2.5441,-2.5319,-2.5318,-2.5318,0,0,-2.5181,-2.5192,-2.5231,-2.5243,-2.5259,-2.5258,-2.5268,-2.528,-2.5282,-2.5324,-2.5305,-2.533,-2.5374,-2.5386,-2.5397,-2.5472,-2.5456,-2.5479,-2.5521,-2.5549,-2.5558,-2.5565,-2.5592,-2.5601,-2.5485,-2.5485,-2.5485,0,-2.5217,-2.5262,-2.5253,-2.5287,-2.5302,-2.528,-2.5319,-2.533,-2.5354,-2.5364,-2.5345,-2.54,-2.5408,-2.546,-2.5478,-2.5488,-2.5498,-2.5478,-2.5557,-2.5565,-2.5572,-2.5597,-2.5607,-2.5488,-2.5488,-2.5487,-2.5487,0,-2.5305,-2.5336,-2.5366,-2.5389,-2.5407,-2.5443,-2.544,-2.5458,-2.5449,-2.545,-2.5492,-2.5502,-2.5527,-2.5538,-2.553,-2.5589,-2.5578,-2.5559,-2.5526,-2.5585,-2.5609,-2.5618,-2.5492,-2.5491,-2.549,-2.549,0,0,-2.5403,-2.542,-2.5431,-2.5441,-2.5457,-2.5481,-2.5516,-2.554,-2.5556,-2.5572,-2.5601,-2.5639,-2.562,-2.5634,-2.5626,-2.5651,-2.5709,-2.5628,-2.5628,-2.5643,-2.5773,-2.5788,-2.58,-2.5698,-2.57,-2.5701,-2.5772,0,-2.5474,-2.5536,-2.5529,-2.5588,-2.5616,-2.5594,-2.5625,-2.5637,-2.5639,-2.5662,-2.5663,-2.5689,-2.5664,-2.5671,-2.5695,-2.5697,-2.5735,-2.5692,-2.5724,-2.5726,-2.5722,-2.5812,-2.5828,-2.5894,-2.5781,-2.5783,-2.5784,0,-2.5567,-2.5587,-2.5648,-2.5659,-2.5671,-2.5698,-2.572,-2.5743,-2.5756,-2.5755,-2.5769,-2.5757,-2.5791,-2.5758,-2.5804,-2.5775,-2.5788,-2.579,-2.5793,-2.5796,-2.5759,-2.5817,-2.5915,-2.5925,-2.5798,-2.5797,-2.5796,0,-2.5632,-2.5674,-2.5716,-2.5725,-2.5739,-2.5759,-2.5765,-2.5777,-2.5792,-2.581,-2.5819,-2.5841,-2.5854,-2.5871,-2.5864,-2.584,-2.5912,-2.5878,-2.5912,-2.5912,-2.5928,-2.5928,-2.603,-2.5936,-2.5936,-2.5936,-2.5936,0,-2.5713,-2.5752,-2.5745,-2.5772,-2.5814,-2.5804,-2.5846,-2.5849,-2.586,-2.5885,-2.5868,-2.5892,-2.5882,-2.5906,-2.5901,-2.594,-2.5945,-2.5945,-2.5943,-2.5947,-2.5947,-2.5956,-2.5951,-2.5938,-2.5938,-2.5937,-2.5937,0,-2.5793,-2.5791,-2.5835,-2.5844,-2.5847,-2.5878,-2.5886,-2.5909,-2.5909,-2.5941,-2.5948,-2.5947,-2.5974,-2.5969,-2.5998,-2.5995,-2.6044,-2.6036,-2.604,-2.6038,-2.6072,-2.6069,-2.6184,-2.6198,-2.6095,-2.6096,-2.6097,0,-2.5846,-2.5875,-2.5887,-2.5903,-2.5911,-2.5937,-2.5952,-2.5944,-2.596,-2.5977,-2.5998,-2.6023,-2.6043,-2.6086,-2.6088,-2.611,-2.6102,-2.6141,-2.6106,-2.6108,-2.6103,-2.6102,-2.6104,-2.6148,-2.615,-2.6151,-2.6151,0,-2.5939,-2.5936,-2.5959,-2.5981,-2.5999,-2.6016,-2.6031,-2.6045,-2.6038,-2.6057,-2.6084,-2.6099,-2.6128,-2.6153,-2.6174,-2.6179,-2.6164,-2.6162,-2.6171,-2.6176,-2.6176,-2.6176,-2.6059,-2.616,-2.6159,-2.6158,-2.6158,-2.6158,-2.6007,-2.6031,-2.6044,-2.6069,-2.608,-2.6094,-2.6117,-2.6119,-2.6141,-2.6165,-2.6158,-2.6189,-2.62,-2.6226,-2.6234,-2.6257,-2.6242,-2.6255,-2.6259,-2.6262,-2.6266,-2.6172,-2.626,-2.626,-2.626,-2.626,-2.6259,0,-2.6099,-2.6106,-2.6129,-2.6151,-2.6171,-2.6155,-2.617,-2.6188,-2.6215,-2.6227,-2.6246,-2.6277,-2.6301,-2.6304,-2.6326,-2.6344,-2.6337,-2.635,-2.6349,-2.635,-2.6278,-2.6268,-2.6355,-2.6355,-2.6355,-2.6355,-2.6355,-2.6355,-2.615,-2.619,-2.6189,-2.6234,-2.624,-2.627,-2.628,-2.6293,-2.6302,-2.6337,-2.6357,-2.6359,-2.6367,-2.6389,-2.641,-2.641,-2.6419,-2.6434,-2.6432,-2.6365,-2.6355,-2.6346,-2.6337,-2.6436,-2.6436,-2.6502,-2.6502,-2.6503]}]]